Location: Unspecified
(48.8656°N, 0.0000°E)
Time: 13:29:35
(UTC+00:00)

SR - Pass Details

Date: 04 July 2019
Orbit: 580 x 876 km, 66.7° (Epoch: 20 July)

Event Time Altitude Azimuth Distance (km) Brightness Sun altitude
Rises 08:36:27 0° 326° (NW) 3,020 ? 41.8°
Reaches altitude 10° 08:38:44 10° 331° (NNW) 2,147 ? 42.1°
Maximum altitude 08:43:33 57° 50° (NE) 861 ? 42.9°
Drops below altitude 10° 08:48:48 10° 129° (SE) 2,330 ? 43.7°
Sets 08:51:21 0° 134° (SE) 3,300 ? 44.1°
